Flag for Canada Weather past 2 weeks in Pickering, Ontario, Canada

Now
18 °F

Passing clouds.


Feels Like: 6 °F
Forecast: 18 / 33 °F
Wind: 10 mph from Southwest

Location: Toronto Buttonville

Current Time: Mar 6, 2015 at 9:25:04 PM

Latest Report: Mar 6, 2015 at 8:00 PM


Visibility: 15 mi

Pressure: 30.24 "Hg

Humidity: 62%

Dew point: 7 °F

Location of PickeringLocation

Historic Weather in Pickering — Graph

°F

Pickering temperature yesterday

Maximum temperature yesterday: 12 °F (at 12:00 AM)
Minimum temperature yesterday: 3 °F (at 5:00 AM)
Average temperature yesterday: 8 °F

Past Weeks' High & Low Weather Summary

 TemperatureHumidityPressure
High32 °F (Mar 4, 12:00 AM)100% (Mar 3, 5:00 PM)30.79 "Hg (Mar 3, 5:00 PM)
Low-11 °F (Feb 27, 6:00 AM)36% (Mar 5, 3:00 AM)29.58 "Hg (Mar 3, 8:00 PM)
Average11 °F65%30.24 "Hg
* Reported Feb 19 8:00 PM — Mar 6 8:00 PM, Pickering, Weather by CustomWeather, © 2015

Note: Actual official high and low records may vary slightly from our data, if they occured in-between our weather recording intervals... More about our weather records

Advertising

Pickering weather history for previous 24 hours

 ConditionsComfort  
Time TempWeatherWind HumidityBarometerVisibility
8:00 PM
Fri, Mar 6
18 °FPassing clouds.10 mph62%30.24 "Hg15 mi
7:00 PM19 °FPassing clouds.10 mph58%30.26 "Hg15 mi
6:00 PM19 °FPartly sunny.17 mph53%30.27 "Hg15 mi
5:00 PM21 °FPartly sunny.12 mph49%30.28 "Hg15 mi
4:00 PM23 °FOvercast.7 mph50%30.32 "Hg15 mi
3:00 PM21 °FPartly sunny.14 mph54%30.34 "Hg15 mi
2:00 PM21 °FPartly sunny.12 mph54%30.37 "Hg15 mi
1:00 PM19 °FScattered clouds.14 mph42%30.41 "Hg15 mi
12:00 PM18 °FScattered clouds.14 mph58%30.46 "Hg15 mi
11:00 AM16 °FPassing clouds.13 mph53%30.47 "Hg15 mi
10:00 AM12 °FPassing clouds.9 mph57%30.49 "Hg15 mi
9:00 AM10 °FPassing clouds.7 mph56%30.51 "Hg15 mi
8:00 AM5 °FPassing clouds.8 mph66%30.51 "Hg15 mi
7:00 AM1 °FPassing clouds.3 mph71%30.51 "Hg15 mi
6:00 AM1 °FClear.3 mph71%30.51 "Hg15 mi
5:00 AM-2 °FClear.2 mph77%30.50 "Hg15 mi
4:00 AM-2 °FClear.3 mph77%30.50 "Hg15 mi
3:00 AM-4 °FClear.No wind71%30.50 "Hg15 mi
2:00 AM1 °FClear.2 mph71%30.51 "Hg15 mi
1:00 AM3 °FClear.3 mph60%30.51 "Hg15 mi
12:00 AM3 °FClear.5 mph60%30.52 "Hg15 mi
11:00 PM
Thu, Mar 5
3 °FClear.5 mph66%30.52 "Hg15 mi
10:00 PM5 °FClear.5 mph60%30.51 "Hg15 mi
9:00 PM7 °FClear.6 mph56%30.49 "Hg15 mi
Weather by CustomWeather, © 2015

See weather overviewHow to use our weather pages